• In Uzbekistan
  • List of Countries
  • For 7 days
  • Water Temperature
  • Satellite Maps
  • Weather Map
  • Weather Widgets
  • user-avatar
    Login

    Hourly Weather Knighton

    Today, 19 October, Thursday

    Time Temperature Precipitation Wind Pressure Humidity
    00:00 +9°C° 0 mm 2 mps 726 mmHg 97%
    01:00 +9°C° 0 mm 2 mps 725 mmHg 97%
    02:00 +9°C° 0 mm 2 mps 725 mmHg 97%
    03:00 +9°C° 0 mm 2 mps 725 mmHg 97%
    04:00 +9°C° 0 mm 2 mps 725 mmHg 97%
    05:00 +9°C° 0 mm 2 mps 724 mmHg 97%
    06:00 +9°C° 0 mm 2 mps 724 mmHg 97%
    07:00 +9°C° 0.1 mm 3 mps 723 mmHg 96%
    08:00 +10°C° 0.1 mm 3 mps 723 mmHg 95%
    09:00 +10°C° 0.1 mm 3 mps 723 mmHg 94%
    10:00 +11°C° 0.1 mm 4 mps 723 mmHg 93%
    11:00 +12°C° 0.1 mm 4 mps 722 mmHg 92%
    12:00 +12°C° 0.1 mm 4 mps 722 mmHg 91%
    13:00 +13°C° 0.2 mm 4 mps 721 mmHg 91%
    14:00 +13°C° 0.2 mm 4 mps 721 mmHg 90%
    15:00 +13°C° 0.2 mm 4 mps 720 mmHg 90%
    16:00 +12°C° 0.5 mm 5 mps 720 mmHg 91%
    17:00 +12°C° 0.5 mm 5 mps 719 mmHg 92%
    18:00 +10°C° 0.5 mm 6 mps 719 mmHg 93%
    19:00 +10°C° 1 mm 6 mps 719 mmHg 93%
    20:00 +10°C° 1 mm 6 mps 718 mmHg 93%
    21:00 +11°C° 1 mm 6 mps 718 mmHg 93%
    22:00 +10°C° 0.2 mm 5 mps 718 mmHg 93%
    23:00 +11°C° 0.2 mm 4 mps 718 mmHg 94%

    Tomorrow, 20 October, Friday

    Time Temperature Precipitation Wind Pressure Humidity
    00:00 +11°C° 0.2 mm 3 mps 718 mmHg 95%
    01:00 +10°C° 0.1 mm 2 mps 718 mmHg 95%
    02:00 +10°C° 0.1 mm 2 mps 718 mmHg 95%
    03:00 +10°C° 0.1 mm 1 mps 719 mmHg 95%
    04:00 +9°C° 0.2 mm 3 mps 720 mmHg 95%
    05:00 +10°C° 0.2 mm 4 mps 720 mmHg 95%
    06:00 +9°C° 0.2 mm 5 mps 721 mmHg 94%
    07:00 +9°C° 0.1 mm 5 mps 722 mmHg 93%
    08:00 +9°C° 0.1 mm 5 mps 723 mmHg 91%
    09:00 +9°C° 0.1 mm 5 mps 723 mmHg 90%
    10:00 +10°C° 0 mm 5 mps 724 mmHg 87%
    11:00 +10°C° 0 mm 5 mps 724 mmHg 84%
    12:00 +10°C° 0 mm 5 mps 725 mmHg 81%
    13:00 +10°C° 0 mm 5 mps 725 mmHg 78%
    14:00 +10°C° 0 mm 5 mps 725 mmHg 75%
    15:00 +10°C° 0 mm 5 mps 725 mmHg 72%
    16:00 +9°C° 0.2 mm 6 mps 724 mmHg 76%
    17:00 +9°C° 0.2 mm 6 mps 723 mmHg 80%
    18:00 +8°C° 0.2 mm 7 mps 723 mmHg 84%
    19:00 +9°C° 1.5 mm 7 mps 722 mmHg 87%
    20:00 +9°C° 1.5 mm 8 mps 721 mmHg 89%
    21:00 +8°C° 1.5 mm 9 mps 720 mmHg 92%
    22:00 +9°C° 0.6 mm 8 mps 720 mmHg 91%
    23:00 +9°C° 0.6 mm 8 mps 719 mmHg 89%

    Day after tomorrow, 21 October, Saturday

    Time Temperature Precipitation Wind Pressure Humidity
    00:00 +10°C° 0.6 mm 7 mps 719 mmHg 88%
    01:00 +9°C° 0 mm 8 mps 718 mmHg 87%
    02:00 +7°C° 0 mm 8 mps 718 mmHg 86%
    03:00 +7°C° 0 mm 8 mps 718 mmHg 85%
    04:00 +7°C° 0.1 mm 9 mps 717 mmHg 83%
    05:00 +7°C° 0.1 mm 10 mps 716 mmHg 82%
    06:00 +7°C° 0.1 mm 11 mps 715 mmHg 80%
    07:00 +7°C° 0.4 mm 12 mps 714 mmHg 80%
    08:00 +8°C° 0.4 mm 12 mps 714 mmHg 81%
    09:00 +8°C° 0.4 mm 13 mps 713 mmHg 81%
    10:00 +8°C° 1.5 mm 13 mps 713 mmHg 82%
    11:00 +8°C° 1.5 mm 13 mps 713 mmHg 84%
    12:00 +8°C° 1.5 mm 13 mps 713 mmHg 86%
    13:00 +8°C° 1.1 mm 13 mps 714 mmHg 85%
    14:00 +8°C° 1.1 mm 12 mps 715 mmHg 84%
    15:00 +8°C° 1.1 mm 12 mps 716 mmHg 84%
    16:00 +7°C° 0.2 mm 12 mps 717 mmHg 83%
    17:00 +7°C° 0.2 mm 12 mps 718 mmHg 82%
    18:00 +6°C° 0.2 mm 11 mps 720 mmHg 81%
    19:00 +6°C° 0.2 mm 11 mps 721 mmHg 81%
    20:00 +6°C° 0.2 mm 10 mps 721 mmHg 81%
    21:00 +5°C° 0.2 mm 10 mps 722 mmHg 81%
    22:00 +5°C° 0.3 mm 10 mps 723 mmHg 81%
    23:00 +5°C° 0.3 mm 10 mps 723 mmHg 81%

    22 October, Sunday

    Time Temperature Precipitation Wind Pressure Humidity
    00:00 +5°C° 0.3 mm 10 mps 724 mmHg 81%
    01:00 +5°C° 0.4 mm 10 mps 724 mmHg 81%
    02:00 +5°C° 0.4 mm 10 mps 725 mmHg 81%
    03:00 +5°C° 0.4 mm 10 mps 725 mmHg 82%
    04:00 +5°C° 0.3 mm 10 mps 726 mmHg 81%
    05:00 +5°C° 0.3 mm 10 mps 726 mmHg 81%
    06:00 +3°C° 0.3 mm 10 mps 727 mmHg 80%
    07:00 +5°C° 0.1 mm 10 mps 728 mmHg 79%
    08:00 +5°C° 0.1 mm 10 mps 728 mmHg 77%
    09:00 +5°C° 0.1 mm 10 mps 729 mmHg 75%
    10:00 +6°C° 0.1 mm 10 mps 729 mmHg 74%
    11:00 +7°C° 0.1 mm 10 mps 730 mmHg 74%
    12:00 +7°C° 0.1 mm 10 mps 731 mmHg 73%
    13:00 +7°C° 0.1 mm 9 mps 731 mmHg 74%
    14:00 +7°C° 0.1 mm 9 mps 731 mmHg 75%
    15:00 +8°C° 0.1 mm 9 mps 731 mmHg 75%
    16:00 +8°C° 0 mm 7 mps 732 mmHg 78%
    17:00 +7°C° 0 mm 6 mps 732 mmHg 81%
    18:00 +7°C° 0 mm 5 mps 732 mmHg 84%
    19:00 +7°C° 0 mm 5 mps 732 mmHg 85%
    20:00 +7°C° 0 mm 5 mps 733 mmHg 86%
    21:00 +7°C° 0 mm 4 mps 733 mmHg 88%
    22:00 +7°C° 0 mm 4 mps 733 mmHg 88%
    23:00 +8°C° 0 mm 5 mps 732 mmHg 89%

    23 October, Monday

    Time Temperature Precipitation Wind Pressure Humidity
    00:00 +8°C° 0 mm 5 mps 732 mmHg 90%
    01:00 +9°C° 0.3 mm 5 mps 732 mmHg 91%
    02:00 +9°C° 0.3 mm 6 mps 732 mmHg 91%
    03:00 +10°C° 0.3 mm 6 mps 731 mmHg 92%
    04:00 +10°C° 0.4 mm 6 mps 731 mmHg 92%
    05:00 +10°C° 0.4 mm 6 mps 731 mmHg 93%
    06:00 +10°C° 0.4 mm 6 mps 731 mmHg 93%
    07:00 +10°C° 0.5 mm 6 mps 731 mmHg 93%
    08:00 +11°C° 0.5 mm 6 mps 731 mmHg 93%
    09:00 +11°C° 0.5 mm 6 mps 731 mmHg 93%
    10:00 +11°C° 0.4 mm 7 mps 731 mmHg 93%
    11:00 +11°C° 0.4 mm 7 mps 731 mmHg 93%
    12:00 +12°C° 0.4 mm 7 mps 731 mmHg 93%
    13:00 +12°C° 0.3 mm 7 mps 731 mmHg 93%
    14:00 +12°C° 0.3 mm 7 mps 731 mmHg 93%
    15:00 +12°C° 0.3 mm 7 mps 731 mmHg 93%
    16:00 +12°C° 0.1 mm 7 mps 731 mmHg 92%
    17:00 +12°C° 0.1 mm 7 mps 731 mmHg 92%
    18:00 +12°C° 0.1 mm 7 mps 731 mmHg 92%
    19:00 +12°C° 0 mm 7 mps 731 mmHg 92%
    20:00 +12°C° 0 mm 7 mps 731 mmHg 91%
    21:00 +12°C° 0 mm 7 mps 732 mmHg 91%
    22:00 +11°C° 0.2 mm 7 mps 732 mmHg 91%
    23:00 +11°C° 0.2 mm 7 mps 732 mmHg 92%

    24 October, Tuesday

    Time Temperature Precipitation Wind Pressure Humidity
    00:00 +11°C° 0.2 mm 7 mps 732 mmHg 92%
    01:00 +11°C° 0.3 mm 6 mps 732 mmHg 93%
    02:00 +11°C° 0.3 mm 6 mps 732 mmHg 93%
    03:00 +11°C° 0.3 mm 6 mps 732 mmHg 94%
    04:00 +12°C° 0.6 mm 5 mps 732 mmHg 94%
    05:00 +12°C° 0.6 mm 5 mps 732 mmHg 94%
    06:00 +12°C° 0.6 mm 5 mps 732 mmHg 95%
    07:00 +12°C° 0.1 mm 5 mps 733 mmHg 95%
    08:00 +13°C° 0.1 mm 4 mps 733 mmHg 95%
    09:00 +13°C° 0.1 mm 4 mps 733 mmHg 95%
    10:00 +13°C° 0.1 mm 4 mps 734 mmHg 93%
    11:00 +13°C° 0.1 mm 4 mps 734 mmHg 92%
    12:00 +14°C° 0.1 mm 4 mps 734 mmHg 90%
    13:00 +14°C° 0.1 mm 4 mps 734 mmHg 91%
    14:00 +14°C° 0.1 mm 3 mps 733 mmHg 92%
    15:00 +14°C° 0.1 mm 3 mps 733 mmHg 94%
    16:00 +13°C° 0.1 mm 4 mps 733 mmHg 94%
    17:00 +13°C° 0.1 mm 5 mps 733 mmHg 94%
    18:00 +13°C° 0.1 mm 6 mps 733 mmHg 94%
    19:00 +12°C° 0 mm 5 mps 733 mmHg 94%
    20:00 +12°C° 0 mm 5 mps 733 mmHg 94%
    21:00 +10°C° 0 mm 5 mps 733 mmHg 94%
    22:00 +10°C° 0 mm 4 mps 733 mmHg 94%
    23:00 +10°C° 0 mm 4 mps 733 mmHg 95%
    Show more